TimeCET,TemperatureF,Dew PointF,Humidity,Sea Level PressureIn,VisibilityMPH,Wind Direction,Wind SpeedMPH,Gust SpeedMPH,PrecipitationIn,Events,Conditions,WindDirDegrees,DateUTC
12:55 AM,23.0,21.2,93,29.24,6.2,North,29.9,41.4,N/A,,Mostly Cloudy,360,2012-10-27 22:55:00
1:55 AM,21.2,19.4,93,29.24,6.2,NNW,19.6,31.1,N/A,,Mostly Cloudy,340,2012-10-27 23:55:00
2:00 AM,22,20,88,,6,NNW,19.6,,,,Partly Cloudy,340,2012-10-28 00:00:00
2:55 AM,21.2,17.6,86,29.27,6.2,NNW,25.3,39.1,N/A,,Mostly Cloudy,340,2012-10-28 00:55:00
2:55 AM,19.4,15.8,86,29.24,6.2,NNW,23.0,34.5,N/A,,Mostly Cloudy,340,2012-10-28 01:55:00
3:55 AM,19.4,15.8,86,29.27,6.2,NNW,23.0,34.5,N/A,,Scattered Clouds,340,2012-10-28 02:55:00
4:00 AM,19,16,84,,19,NNW,23.0,,,,Partly Cloudy,340,2012-10-28 03:00:00
4:55 AM,19.4,14.0,80,29.27,6.2,North,26.5,-,N/A,,Mostly Cloudy,350,2012-10-28 03:55:00
5:55 AM,19.4,14.0,80,29.24,6.2,NNW,25.3,36.8,N/A,,Scattered Clouds,340,2012-10-28 04:55:00
6:55 AM,17.6,15.8,93,29.24,0.1,NNW,20.7,-,N/A,Fog-Snow,Light Snow,340,2012-10-28 05:55:00
7:00 AM,18,15,85,,0,NNW,20.7,,,Snow,Light Snow,340,2012-10-28 06:00:00
7:55 AM,19.4,15.8,86,29.27,0.1,North,19.6,-,N/A,Fog-Snow,Light Snow,350,2012-10-28 06:55:00
8:55 AM,19.4,17.6,93,29.33,0.1,NNW,17.3,-,N/A,Fog-Snow,Light Snow,340,2012-10-28 07:55:00
9:55 AM,19.4,15.8,86,29.33,0.1,North,18.4,29.9,N/A,Fog-Snow,Light Snow,350,2012-10-28 08:55:00
10:00 AM,19,17,85,,0,North,18.4,,,Snow,Light Snow,350,2012-10-28 09:00:00
10:55 AM,19.4,17.6,93,29.33,0.1,North,17.3,-,N/A,Fog-Snow,Light Snow,350,2012-10-28 09:55:00
11:55 AM,19.4,17.6,93,29.36,0.1,North,13.8,25.3,N/A,Fog-Snow,Light Snow,350,2012-10-28 10:55:00
12:55 PM,21.2,19.4,93,29.36,-9999.0,North,17.3,-,N/A,Fog,Light Freezing Fog,350,2012-10-28 11:55:00
1:00 PM,21,19,87,,0,North,17.3,,,Snow,Light Snow,350,2012-10-28 12:00:00
1:55 PM,21.2,19.4,93,29.33,-9999.0,North,19.6,31.1,N/A,Fog,Light Freezing Fog,360,2012-10-28 12:55:00
2:55 PM,21.2,19.4,93,29.36,-9999.0,NNE,10.4,21.9,N/A,Fog,Light Freezing Fog,30,2012-10-28 13:55:00
3:55 PM,21.2,19.4,93,29.39,-9999.0,NNE,11.5,-,N/A,Fog,Light Freezing Fog,30,2012-10-28 14:55:00
4:00 PM,22,20,88,,0,NNE,11.5,,,Snow,Light Snow,30,2012-10-28 15:00:00
4:55 PM,21.2,19.4,93,29.39,-9999.0,North,8.1,-,N/A,Fog,Light Freezing Fog,360,2012-10-28 15:55:00
5:55 PM,21.2,19.4,93,29.42,-9999.0,North,12.7,-,N/A,Fog,Light Freezing Fog,360,2012-10-28 16:55:00
6:55 PM,21.2,19.4,93,29.44,-9999.0,North,17.3,-,N/A,Fog,Light Freezing Fog,360,2012-10-28 17:55:00
7:00 PM,21,19,90,,0,North,17.3,,,Snow,Light Snow,0,2012-10-28 18:00:00
7:55 PM,21.2,21.2,100,29.47,-9999.0,North,15.0,-,N/A,Fog,Light Freezing Fog,360,2012-10-28 18:55:00
8:55 PM,19.4,17.6,93,29.47,-9999.0,North,18.4,-,N/A,Fog,Light Freezing Fog,350,2012-10-28 19:55:00
9:55 PM,19.4,17.6,93,29.47,-9999.0,North,18.4,-,N/A,Fog,Light Freezing Fog,350,2012-10-28 20:55:00
10:55 PM,19.4,17.6,93,29.47,-9999.0,North,23.0,-,N/A,Fog,Light Freezing Fog,360,2012-10-28 21:55:00